TimeMST,TemperatureF,Dew PointF,Humidity,Sea Level PressureIn,VisibilityMPH,Wind Direction,Wind SpeedMPH,Gust SpeedMPH,PrecipitationIn,Events,Conditions,WindDirDegrees,DateUTC
12:15 AM,33.8,10.4,38,30.12,10.0,Calm,Calm,-,N/A,,Clear,0,2013-01-08 07:15:00
12:35 AM,35.6,10.4,35,30.13,10.0,West,4.6,-,N/A,,Clear,270,2013-01-08 07:35:00
1:15 AM,33.8,10.4,38,30.13,10.0,Calm,Calm,-,N/A,,Clear,0,2013-01-08 08:15:00
1:35 AM,33.8,12.2,41,30.14,10.0,SSE,3.5,-,N/A,,Clear,150,2013-01-08 08:35:00
1:55 AM,33.8,10.4,38,30.14,10.0,South,4.6,-,N/A,,Clear,170,2013-01-08 08:55:00
2:15 AM,30.2,12.2,47,30.14,10.0,SW,5.8,-,N/A,,Clear,220,2013-01-08 09:15:00
2:35 AM,32.0,12.2,44,30.15,10.0,SSW,3.5,-,N/A,,Clear,200,2013-01-08 09:35:00
2:55 AM,30.2,12.2,47,30.15,10.0,SSE,3.5,-,N/A,,Clear,160,2013-01-08 09:55:00
3:15 AM,30.2,12.2,47,30.14,10.0,SSW,4.6,-,N/A,,Clear,200,2013-01-08 10:15:00
3:55 AM,30.2,12.2,47,30.16,10.0,Calm,Calm,-,N/A,,Clear,0,2013-01-08 10:55:00
4:15 AM,30.2,12.2,47,30.15,10.0,ESE,5.8,-,N/A,,Clear,120,2013-01-08 11:15:00
4:35 AM,28.4,10.4,47,30.14,10.0,South,5.8,-,N/A,,Clear,180,2013-01-08 11:35:00
4:55 AM,28.4,10.4,47,30.14,10.0,West,3.5,-,N/A,,Clear,270,2013-01-08 11:55:00
5:15 AM,28.4,12.2,51,30.14,10.0,Calm,Calm,-,N/A,,Clear,0,2013-01-08 12:15:00
5:55 AM,32.0,12.2,44,30.16,10.0,Calm,Calm,-,N/A,,Clear,0,2013-01-08 12:55:00
6:15 AM,30.2,10.4,44,30.17,10.0,SE,3.5,-,N/A,,Clear,140,2013-01-08 13:15:00
6:35 AM,28.4,12.2,51,30.18,10.0,ENE,5.8,-,N/A,,Clear,70,2013-01-08 13:35:00
6:55 AM,28.4,12.2,51,30.19,10.0,Calm,Calm,-,N/A,,Clear,0,2013-01-08 13:55:00
7:15 AM,24.8,12.2,59,30.19,10.0,South,3.5,-,N/A,,Clear,190,2013-01-08 14:15:00
7:35 AM,26.6,12.2,55,30.20,10.0,Calm,Calm,-,N/A,,Clear,0,2013-01-08 14:35:00
7:55 AM,26.6,12.2,55,30.21,10.0,Calm,Calm,-,N/A,,Clear,0,2013-01-08 14:55:00
8:15 AM,26.6,12.2,55,30.22,10.0,Calm,Calm,-,N/A,,Clear,0,2013-01-08 15:15:00
8:35 AM,28.4,14.0,55,30.23,10.0,South,5.8,-,N/A,,Clear,190,2013-01-08 15:35:00
8:55 AM,28.4,14.0,55,30.24,10.0,SSW,3.5,-,N/A,,Clear,200,2013-01-08 15:55:00
9:15 AM,30.2,14.0,51,30.24,10.0,South,3.5,-,N/A,,Clear,170,2013-01-08 16:15:00
9:35 AM,32.0,15.8,51,30.25,10.0,Calm,Calm,-,N/A,,Clear,0,2013-01-08 16:35:00
9:55 AM,33.8,14.0,44,30.26,10.0,Calm,Calm,-,N/A,,Clear,0,2013-01-08 16:55:00
10:15 AM,33.8,15.8,48,30.27,10.0,Calm,Calm,-,N/A,,Clear,0,2013-01-08 17:15:00
10:35 AM,37.4,15.8,41,30.27,10.0,Calm,Calm,-,N/A,,Clear,0,2013-01-08 17:35:00
10:55 AM,39.2,15.8,39,30.26,10.0,East,4.6,-,N/A,,Clear,80,2013-01-08 17:55:00
11:55 AM,46.4,15.8,29,30.23,10.0,Calm,Calm,-,N/A,,Clear,0,2013-01-08 18:55:00
12:15 PM,46.4,15.8,29,30.22,10.0,Calm,Calm,-,N/A,,Clear,0,2013-01-08 19:15:00
12:55 PM,48.2,15.8,27,30.20,10.0,SW,3.5,-,N/A,,Clear,220,2013-01-08 19:55:00
1:15 PM,48.2,17.6,30,30.20,10.0,Calm,Calm,-,N/A,,Clear,0,2013-01-08 20:15:00
1:35 PM,50.0,17.6,28,30.20,10.0,Calm,Calm,-,N/A,,Clear,0,2013-01-08 20:35:00
1:55 PM,51.8,19.4,28,30.19,10.0,SE,3.5,-,N/A,,Clear,130,2013-01-08 20:55:00
2:15 PM,53.6,19.4,26,30.19,10.0,Calm,Calm,-,N/A,,Clear,0,2013-01-08 21:15:00
2:35 PM,53.6,19.4,26,30.19,10.0,Calm,Calm,-,N/A,,Clear,0,2013-01-08 21:35:00
3:15 PM,55.4,21.2,26,30.19,10.0,Calm,Calm,-,N/A,,Clear,0,2013-01-08 22:15:00
3:35 PM,53.6,19.4,26,30.19,10.0,NNW,4.6,-,N/A,,Clear,330,2013-01-08 22:35:00
3:55 PM,53.6,19.4,26,30.19,10.0,NW,3.5,-,N/A,,Clear,320,2013-01-08 22:55:00
4:15 PM,53.6,19.4,26,30.20,10.0,West,3.5,-,N/A,,Clear,280,2013-01-08 23:15:00
4:35 PM,53.6,19.4,26,30.20,10.0,Calm,Calm,-,N/A,,Clear,0,2013-01-08 23:35:00
4:55 PM,53.6,19.4,26,30.20,10.0,Calm,Calm,-,N/A,,Clear,0,2013-01-08 23:55:00
5:15 PM,53.6,21.2,28,30.20,10.0,Calm,Calm,-,N/A,,Clear,0,2013-01-09 00:15:00
5:35 PM,51.8,21.2,30,30.20,10.0,Calm,Calm,-,N/A,,Clear,0,2013-01-09 00:35:00
5:55 PM,51.8,19.4,28,30.20,10.0,North,3.5,-,N/A,,Clear,360,2013-01-09 00:55:00
6:15 PM,48.2,19.4,32,30.21,10.0,NE,6.9,-,N/A,,Clear,40,2013-01-09 01:15:00
6:35 PM,46.4,19.4,34,30.22,10.0,Calm,Calm,-,N/A,,Clear,0,2013-01-09 01:35:00
6:55 PM,44.6,19.4,37,30.23,10.0,Calm,Calm,-,N/A,,Clear,0,2013-01-09 01:55:00
7:15 PM,44.6,19.4,37,30.24,10.0,ESE,5.8,-,N/A,,Clear,120,2013-01-09 02:15:00
7:35 PM,42.8,21.2,42,30.25,10.0,SE,4.6,-,N/A,,Clear,130,2013-01-09 02:35:00
7:55 PM,42.8,21.2,42,30.26,10.0,SE,5.8,-,N/A,,Clear,140,2013-01-09 02:55:00
8:15 PM,46.4,24.8,43,30.26,10.0,ENE,6.9,-,N/A,,Clear,60,2013-01-09 03:15:00
8:35 PM,42.8,19.4,39,30.27,10.0,Calm,Calm,-,N/A,,Clear,0,2013-01-09 03:35:00
9:15 PM,44.6,21.2,39,30.29,10.0,WSW,3.5,-,N/A,,Clear,240,2013-01-09 04:15:00
9:35 PM,46.4,23.0,40,30.29,10.0,North,5.8,-,N/A,,Clear,10,2013-01-09 04:35:00
9:55 PM,42.8,21.2,42,30.30,10.0,North,9.2,-,N/A,,Clear,10,2013-01-09 04:55:00
10:15 PM,41.0,21.2,45,30.31,10.0,North,3.5,-,N/A,,Clear,350,2013-01-09 05:15:00
11:15 PM,39.2,21.2,49,30.33,10.0,South,3.5,-,N/A,,Clear,180,2013-01-09 06:15:00
11:35 PM,35.6,21.2,56,30.33,10.0,Calm,Calm,-,N/A,,Clear,0,2013-01-09 06:35:00
11:55 PM,37.4,21.2,52,30.33,10.0,SSE,3.5,-,N/A,,Clear,150,2013-01-09 06:55:00